QPF
0.00 0.00 0.00 0.00 0.00 0.00 0.00 0.00 0.00 0.00 0.00 0.00 0.00 0.00 0.00 0.00 0.00 0.00 0.00 0.00 0.00 0.00 0.00 0.00 0.00 0.00 0.00 0.00 0.00 0.00 0.00 0.00 0.00 0.00 0.00 0.00 0.00 0.00 0.00 0.00 0.00 0.00 0.00 0.00
0.00 0.00 0.00 0.00 0.00 0.00 0.00 0.00 0.00 0.00 0.00 0.00 0.00 0.01 0.00 0.00 0.00 0.00 0.00 0.00 0.00 0.00 0.00 0.00 0.00 0.00 0.00 0.00 0.00 0.00 0.00 0.00 0.00 0.00 0.00 0.00 0.00 0.00 0.00 0.00 0.00 0.00 0.00 0.00
0.00 0.00 0.00 0.00 0.00 0.00 0.00 0.00 0.00 0.00 0.00 0.00 0.01 0.00 0.00 0.00 0.00 0.00 0.00 0.00 0.00 0.00 0.00 0.00 0.00 0.00 0.00 0.00 0.00 0.00 0.00 0.00 0.00 0.00 0.00 0.00 0.00 0.00 0.00 0.00 0.00 0.00 0.00 0.00
0.00 0.00 0.00 0.00 0.00 0.00 0.00 0.00 0.00 0.00 0.00 0.01 0.01 0.00 0.01 0.00 0.00 0.00 0.00 0.00 0.00 0.00 0.00 0.00 0.00 0.00 0.00 0.00 0.00 0.00 0.00 0.00 0.00 0.00 0.00 0.00 0.00 0.00 0.00 0.00 0.00 0.00 0.00 0.00
0.00 0.00 0.00 0.00 0.00 0.00 0.00 0.00 0.00 0.00 0.00 0.00 0.00 0.00 0.04 0.06 0.01 0.00 0.00 0.00 0.00 0.00 0.00 0.00 0.00 0.00 0.00 0.00 0.00 0.00 0.00 0.00 0.00 0.00 0.00 0.00 0.00 0.00 0.00 0.00 0.00 0.00 0.00 0.00
0.00 0.00 0.00 0.00 0.00 0.00 0.00 0.00 0.00 0.00 0.00 0.01 0.00 0.01 0.01 0.02 0.01 0.00 0.00 0.00 0.00 0.00 0.00 0.00 0.00 0.00 0.00 0.00 0.00 0.00 0.00 0.00 0.00 0.00 0.00 0.00 0.00 0.00 0.00 0.00 0.00 0.00 0.00 0.00
0.00 0.00 0.00 0.00 0.00 0.00 0.00 0.00 0.00 0.00 0.00 0.00 0.00 0.00 0.00 0.00 0.00 0.00 0.00 0.00 0.00 0.00 0.00 0.00 0.00 0.00 0.00 0.00 0.00 0.00 0.00 0.00 0.00 0.00 0.00 0.00 0.00 0.00 0.00 0.00 0.00 0.00 0.00 0.00
0.00 0.00 0.00 0.00 0.00 0.00 0.00 0.00 0.00 0.00 0.00 0.00 0.00 0.00 0.00 0.00 0.00 0.02 0.01 0.00 0.00 0.00 0.00 0.00 0.00 0.00 0.02 0.01 0.00 0.00 0.00 0.00 0.00 0.00 0.00 0.00 0.00 0.00 0.00 0.00 0.00 0.00 0.00 0.00
0.00 0.00 0.00 0.00 0.00 0.00 0.00 0.00 0.00 0.00 0.00 0.00 0.00 0.00 0.00 0.00 0.00 0.01 0.00 0.00 0.00 0.01 0.00 0.00 0.00 0.02 0.02 0.02 0.00 0.00 0.00 0.00 0.00 0.00 0.00 0.00 0.00 0.00 0.00 0.00 0.00 0.00 0.00 0.00
0.00 0.00 0.00 0.00 0.00 0.00 0.00 0.00 0.00 0.00 0.00 0.00 0.00 0.00 0.00 0.00 0.00 0.00 0.00 0.00 0.01 0.00 0.00 0.00 0.00 0.02 0.03 0.01 0.00 0.00 0.00 0.00 0.00 0.00 0.00 0.00 0.00 0.00 0.00 0.00 0.00 0.00 0.00 0.00
0.00 0.00 0.00 0.00 0.00 0.00 0.00 0.00 0.00 0.00 0.00 0.00 0.00 0.00 0.00 0.00 0.00 0.00 0.00 0.00 0.01 0.00 0.00 0.00 0.00 0.02 0.02 0.01 0.00 0.00 0.00 0.00 0.00 0.00 0.00 0.00 0.00 0.00 0.00 0.00 0.00 0.00 0.00 0.00
0.00 0.00 0.00 0.00 0.00 0.00 0.00 0.00 0.00 0.00 0.00 0.00 0.00 0.00 0.00 0.00 0.00 0.00 0.00 0.00 0.01 0.01 0.00 0.01 0.00 0.01 0.01 0.00 0.00 0.00 0.00 0.00 0.00 0.00 0.00 0.00 0.00 0.00 0.00 0.00 0.00 0.00 0.00 0.00
0.00 0.00 0.00 0.00 0.00 0.00 0.00 0.00 0.00 0.00 0.00 0.00 0.01 0.00 0.00 0.00 0.00 0.00 0.00 0.00 0.00 0.00 0.01 0.02 0.00 0.00 0.01 0.01 0.00 0.00 0.00 0.00 0.00 0.00 0.00 0.00 0.00 0.00 0.00 0.00 0.00 0.00 0.00 0.00
0.00 0.00 0.00 0.00 0.00 0.00 0.00 0.00 0.00 0.00 0.00 0.00 0.00 0.00 0.00 0.00 0.00 0.00 0.00 0.00 0.01 0.01 0.01 0.03 0.01 0.00 0.00 0.00 0.00 0.00 0.00 0.00 0.00 0.00 0.00 0.00 0.00 0.00 0.00 0.00 0.00 0.00 0.00 0.00
0.00 0.00 0.00 0.00 0.00 0.00 0.00 0.00 0.00 0.00 0.00 0.00 0.00 0.00 0.00 0.00 0.00 0.00 0.01 0.01 0.00 0.01 0.00 0.01 0.01 0.01 0.00 0.00 0.00 0.00 0.00 0.00 0.00 0.00 0.00 0.00 0.00 0.00 0.00 0.00 0.00 0.00 0.00 0.00
0.00 0.00 0.00 0.00 0.00 0.00 0.00 0.00 0.00 0.00 0.00 0.00 0.00 0.00 0.00 0.00 0.00 0.01 0.03 0.01 0.01 0.01 0.00 0.01 0.01 0.00 0.00 0.00 0.00 0.00 0.00 0.00 0.00 0.00 0.00 0.00 0.00 0.00 0.00 0.00 0.00 0.00 0.00 0.00
0.00 0.00 0.00 0.00 0.00 0.00 0.00 0.00 0.00 0.00 0.00 0.00 0.00 0.00 0.00 0.00 0.00 0.01 0.01 0.01 0.00 0.00 0.00 0.00 0.00 0.00 0.00 0.00 0.00 0.00 0.00 0.00 0.00 0.00 0.00 0.00 0.00 0.00 0.00 0.00 0.00 0.00 0.00 0.00
0.00 0.00 0.00 0.00 0.00 0.00 0.00 0.00 0.00 0.00 0.00 0.00 0.00 0.00 0.00 0.00 0.00 0.00 0.01 0.01 0.00 0.00 0.00 0.00 0.00 0.00 0.00 0.00 0.00 0.00 0.00 0.00 0.00 0.00 0.00 0.00 0.00 0.00 0.00 0.00 0.00 0.00 0.00 0.00
0.00 0.00 0.00 0.00 0.00 0.00 0.00 0.00 0.00 0.00 0.00 0.00 0.00 0.00 0.00 0.00 0.00 0.00 0.00 0.00 0.00 0.00 0.00 0.00 0.00 0.00 0.00 0.00 0.00 0.00 0.00 0.00 0.00 0.00 0.00 0.00 0.00 0.00 0.00 0.00 0.00 0.00 0.00 0.00
0.00 0.00 0.00 0.00 0.00 0.00 0.00 0.00 0.00 0.00 0.00 0.00 0.00 0.00 0.00 0.00 0.00 0.00 0.00 0.00 0.00 0.00 0.00 0.00 0.00 0.00 0.00 0.00 0.00 0.00 0.00 0.00 0.00 0.00 0.00 0.00 0.00 0.00 0.00 0.00 0.00 0.00 0.00 0.01
0.00 0.00 0.01 0.00 0.00 0.00 0.00 0.00 0.00 0.01 0.01 0.00 0.00 0.00 0.00 0.00 0.00 0.00 0.00 0.00 0.00 0.00 0.00 0.00 0.00 0.00 0.00 0.00 0.00 0.00 0.00 0.00 0.00 0.00 0.00 0.00 0.00 0.00 0.01 0.01 0.02 0.01 0.05 0.06
0.00 0.00 0.01 0.02 0.02 0.01 0.00 0.00 0.01 0.00 0.00 0.00 0.00 0.00 0.00 0.00 0.00 0.00 0.00 0.00 0.00 0.00 0.00 0.00 0.00 0.00 0.00 0.00 0.00 0.00 0.00 0.00 0.00 0.00 0.00 0.00 0.04 0.06 0.08 0.09 0.05 0.04 0.06 0.06
0.00 0.00 0.00 0.01 0.02 0.00 0.00 0.01 0.00 0.00 0.01 0.02 0.04 0.03 0.02 0.01 0.00 0.00 0.00 0.00 0.00 0.00 0.00 0.00 0.00 0.00 0.00 0.00 0.00 0.00 0.00 0.00 0.00 0.00 0.00 0.01 0.03 0.03 0.05 0.06 0.03 0.02 0.08 0.07
0.00 0.00 0.00 0.00 0.00 0.00 0.01 0.03 0.03 0.04 0.05 0.05 0.05 0.03 0.01 0.00 0.00 0.00 0.00 0.00 0.00 0.01 0.00 0.00 0.00 0.00 0.00 0.00 0.00 0.00 0.04 0.05 0.03 0.01 0.01 0.01 0.01 0.00 0.01 0.02 0.02 0.01 0.01 0.01
0.00 0.00 0.00 0.00 0.01 0.02 0.06 0.07 0.05 0.02 0.02 0.02 0.01 0.00 0.00 0.00 0.00 0.00 0.00 0.00 0.00 0.00 0.00 0.00 0.00 0.00 0.00 0.01 0.03 0.05 0.05 0.02 0.00 0.01 0.01 0.00 0.00 0.00 0.00 0.00 0.00 0.00 0.00 0.00
0.01 0.00 0.00 0.00 0.04 0.07 0.07 0.06 0.03 0.03 0.04 0.02 0.01 0.00 0.00 0.00 0.00 0.00 0.00 0.00 0.01 0.01 0.00 0.00 0.00 0.02 0.02 0.04 0.05 0.02 0.00 0.00 0.00 0.00 0.00 0.00 0.00 0.00 0.00 0.00 0.00 0.00 0.00 0.00
MSLP
1007.92 1008.92 1009.25 1009.73 1009.77 1010.84 1011.05 1011.54 1011.96 1011.31 1010.63 1010.59 1011.33 1012.05 1012.31 1012.90 1013.42 1013.60 1014.12 1014.64 1015.03 1015.47 1016.46 1017.12 1017.95 1018.70 1019.28 1019.53 1019.94 1020.39 1020.69 1020.86 1020.82 1020.71 1020.84 1020.82 1020.91 1020.52 1020.69 1020.53 1020.44 1020.56 1020.66 1020.74
1008.11 1008.14 1007.43 1007.73 1008.67 1009.67 1009.37 1009.86 1009.97 1010.08 1009.69 1010.44 1011.54 1012.09 1012.25 1012.23 1012.40 1012.69 1013.20 1013.74 1014.24 1015.31 1015.99 1016.59 1017.40 1018.16 1018.62 1019.20 1019.67 1020.06 1020.46 1020.71 1020.76 1020.80 1020.91 1020.80 1020.71 1020.58 1020.52 1020.52 1020.52 1020.44 1020.45 1020.62
1008.15 1007.18 1006.67 1006.86 1007.64 1007.92 1008.53 1009.13 1009.75 1010.96 1011.46 1011.84 1011.62 1011.44 1011.95 1012.57 1012.25 1012.08 1012.21 1012.75 1013.69 1014.41 1015.32 1016.06 1016.73 1017.42 1018.09 1018.56 1019.13 1019.69 1020.03 1020.37 1020.68 1020.79 1020.73 1020.61 1020.37 1020.49 1020.70 1020.80 1020.63 1020.49 1020.33 1020.33
1007.83 1006.81 1006.46 1006.76 1007.19 1007.54 1008.43 1008.44 1009.30 1010.29 1012.16 1013.16 1013.91 1014.19 1013.24 1012.69 1012.64 1011.99 1011.59 1011.90 1012.64 1013.67 1014.42 1015.03 1015.84 1016.64 1017.46 1018.15 1018.54 1019.08 1019.66 1020.09 1020.36 1020.59 1020.75 1020.85 1021.06 1021.05 1021.03 1020.81 1020.54 1020.27 1020.32 1020.55
1007.37 1007.23 1006.49 1006.39 1006.60 1007.00 1008.00 1008.42 1009.73 1010.37 1012.81 1013.94 1015.12 1015.75 1016.02 1014.37 1012.62 1011.48 1010.71 1011.04 1011.51 1012.29 1013.23 1014.11 1014.87 1015.64 1016.54 1017.53 1018.20 1018.68 1019.22 1019.79 1020.12 1020.34 1020.56 1020.81 1020.96 1020.98 1020.85 1020.69 1020.58 1020.64 1020.59 1020.56
1007.53 1006.56 1006.25 1006.11 1006.30 1006.88 1007.45 1008.85 1010.31 1011.71 1013.23 1014.60 1013.57 1015.24 1015.56 1013.81 1012.06 1010.35 1009.84 1010.03 1010.66 1011.49 1012.48 1013.22 1014.10 1015.01 1016.29 1017.06 1017.78 1018.36 1018.76 1019.45 1019.75 1020.03 1020.30 1020.58 1020.78 1020.82 1020.94 1020.89 1020.94 1020.74 1021.00 1020.79
1007.60 1006.97 1006.36 1006.22 1006.65 1006.94 1007.75 1009.59 1011.85 1013.00 1014.13 1014.18 1013.55 1014.60 1013.42 1011.59 1010.14 1009.35 1009.36 1009.65 1010.43 1011.04 1011.95 1012.69 1013.71 1014.59 1015.78 1016.48 1017.31 1017.96 1018.49 1019.00 1019.29 1019.67 1019.96 1020.23 1020.42 1020.54 1020.81 1020.89 1020.90 1020.70 1020.78 1020.84
1008.59 1007.93 1006.99 1006.71 1007.08 1007.80 1008.47 1010.09 1012.09 1013.60 1014.12 1013.77 1013.07 1014.49 1012.22 1010.76 1010.75 1010.55 1009.66 1009.83 1010.11 1010.52 1011.22 1011.93 1012.75 1014.22 1015.18 1016.11 1016.89 1017.40 1018.10 1018.52 1018.81 1019.14 1019.66 1019.82 1020.04 1020.30 1020.55 1020.46 1020.49 1020.44 1020.45 1020.41
1008.62 1008.11 1007.39 1007.03 1007.16 1008.27 1009.05 1011.08 1012.03 1013.28 1013.72 1014.11 1013.75 1013.54 1011.94 1012.45 1011.97 1012.64 1010.79 1010.17 1010.40 1010.88 1011.24 1011.75 1012.64 1014.13 1015.25 1015.80 1016.43 1016.84 1017.52 1017.99 1018.40 1018.73 1019.17 1019.54 1019.81 1019.96 1020.07 1020.13 1020.12 1020.13 1020.04 1019.83
1008.02 1008.21 1007.62 1007.26 1007.47 1008.47 1009.41 1011.76 1012.97 1014.71 1015.24 1014.91 1014.24 1013.84 1012.66 1012.13 1011.71 1011.91 1010.68 1010.32 1010.02 1010.00 1010.43 1011.36 1012.13 1013.47 1014.26 1015.11 1015.67 1016.41 1017.06 1017.50 1017.91 1018.43 1018.74 1019.10 1019.45 1019.55 1019.70 1019.81 1019.88 1019.86 1019.75 1019.53
1007.47 1008.00 1008.30 1007.89 1008.31 1009.24 1010.29 1012.47 1014.20 1015.71 1015.44 1015.41 1014.90 1013.30 1012.02 1011.79 1011.58 1011.80 1011.78 1011.18 1012.22 1013.34 1008.60 1009.98 1011.26 1013.02 1013.78 1014.56 1015.38 1016.09 1016.72 1017.17 1017.60 1017.89 1018.31 1018.67 1019.04 1019.16 1019.36 1019.39 1019.40 1019.40 1019.36 1019.31
1007.66 1007.91 1008.55 1008.56 1008.39 1008.70 1009.83 1011.51 1012.88 1014.68 1015.01 1015.02 1014.96 1013.42 1012.55 1012.52 1012.36 1012.09 1011.95 1013.37 1014.03 1012.98 1012.14 1010.57 1010.93 1012.23 1013.51 1014.37 1015.10 1015.70 1016.22 1016.52 1016.86 1017.13 1017.66 1018.24 1018.54 1018.64 1018.81 1018.95 1019.02 1019.09 1018.94 1018.71
1007.85 1008.78 1009.27 1009.02 1009.35 1009.16 1009.40 1009.86 1010.93 1012.83 1013.95 1014.43 1014.59 1013.59 1012.56 1012.85 1012.97 1012.99 1014.30 1013.88 1013.38 1013.45 1013.96 1015.70 1011.73 1012.71 1013.44 1013.87 1014.51 1015.49 1015.96 1016.17 1016.41 1016.80 1017.37 1017.82 1018.18 1018.41 1018.51 1018.57 1018.44 1018.45 1018.47 1018.41
1008.03 1008.98 1009.69 1010.24 1009.60 1009.02 1009.01 1009.36 1010.22 1011.64 1013.35 1013.50 1013.17 1012.83 1013.06 1013.77 1013.72 1014.42 1014.93 1014.54 1013.55 1014.42 1015.46 1016.04 1016.04 1014.56 1013.38 1013.84 1014.53 1015.43 1015.67 1015.83 1015.88 1016.54 1017.05 1017.58 1017.89 1018.00 1018.09 1018.07 1018.05 1018.07 1018.12 1018.02
1008.57 1009.56 1009.76 1009.87 1009.36 1008.86 1008.44 1008.74 1008.89 1010.33 1010.48 1012.13 1011.75 1011.94 1012.34 1013.86 1014.28 1014.70 1015.34 1014.90 1014.53 1015.01 1014.50 1013.90 1014.12 1014.28 1013.73 1014.19 1014.87 1015.23 1015.76 1016.08 1016.02 1016.43 1016.82 1017.18 1017.32 1017.46 1017.55 1017.64 1017.64 1017.65 1017.59 1017.61
1008.81 1009.72 1010.10 1010.31 1009.64 1008.94 1008.48 1008.34 1008.54 1008.79 1009.63 1010.39 1010.61 1011.58 1012.18 1013.49 1014.12 1014.92 1014.78 1014.79 1014.43 1014.52 1014.64 1013.53 1012.29 1012.94 1013.75 1014.31 1014.99 1015.41 1016.00 1016.05 1015.81 1016.28 1016.60 1016.76 1016.96 1017.08 1017.13 1017.14 1017.13 1017.13 1017.19 1017.09
1009.58 1010.33 1010.80 1010.90 1010.24 1009.67 1009.39 1009.07 1008.58 1008.92 1009.18 1009.73 1010.66 1011.50 1012.24 1013.22 1013.74 1014.00 1014.09 1014.06 1013.96 1013.71 1012.99 1012.63 1012.70 1013.30 1013.89 1014.62 1015.16 1015.76 1015.75 1015.71 1015.89 1016.14 1016.38 1016.45 1016.47 1016.66 1016.70 1016.54 1016.54 1016.58 1016.57 1016.35
1009.74 1010.62 1011.18 1011.76 1011.23 1010.79 1009.92 1008.75 1009.61 1009.83 1010.34 1010.59 1010.52 1011.17 1011.60 1012.22 1012.82 1013.15 1013.15 1013.54 1013.39 1013.24 1013.29 1013.41 1013.50 1013.90 1014.40 1014.78 1015.16 1015.35 1015.44 1015.58 1015.81 1016.05 1016.18 1016.23 1016.18 1016.10 1015.91 1015.96 1015.97 1015.96 1015.87 1015.79
1009.38 1010.62 1011.85 1012.38 1012.44 1011.34 1011.00 1011.60 1011.40 1010.99 1011.57 1011.68 1011.97 1011.48 1011.73 1011.85 1012.47 1012.89 1012.78 1012.76 1012.87 1013.01 1013.16 1013.39 1013.62 1013.94 1014.26 1014.66 1014.89 1015.15 1015.49 1015.68 1015.81 1015.88 1015.88 1015.81 1015.75 1015.77 1015.73 1015.84 1015.95 1015.64 1015.48 1015.20
1010.06 1010.92 1012.35 1012.92 1013.36 1013.12 1012.77 1012.62 1012.40 1011.91 1012.35 1012.12 1011.52 1011.84 1011.42 1011.50 1012.72 1013.16 1012.69 1012.99 1013.24 1013.24 1013.46 1013.82 1014.24 1014.53 1014.77 1015.17 1015.29 1015.60 1015.91 1015.98 1015.93 1015.71 1015.57 1015.43 1015.35 1015.43 1015.47 1015.49 1015.34 1014.89 1014.66 1014.44
1011.90 1012.58 1012.91 1013.43 1013.75 1013.58 1013.06 1012.84 1012.56 1013.27 1013.14 1012.12 1011.88 1011.52 1011.44 1012.00 1011.94 1012.27 1012.50 1012.88 1013.03 1013.32 1013.56 1013.83 1014.50 1015.22 1015.44 1015.58 1015.87 1016.24 1016.13 1016.08 1015.85 1015.48 1015.34 1015.35 1015.27 1015.21 1015.07 1015.10 1015.12 1014.91 1014.70 1014.45
1013.35 1013.84 1014.43 1015.12 1014.40 1013.91 1013.21 1013.74 1014.05 1014.08 1012.68 1012.48 1012.54 1011.09 1011.43 1011.50 1011.75 1012.01 1012.40 1012.81 1013.05 1013.41 1013.63 1013.93 1014.66 1015.30 1015.38 1015.72 1016.18 1016.57 1016.81 1016.58 1015.93 1015.85 1015.82 1015.75 1015.62 1015.49 1015.30 1015.55 1015.05 1014.72 1014.58 1014.37
1014.37 1014.29 1014.68 1014.57 1013.80 1012.99 1013.29 1015.60 1015.04 1014.56 1014.23 1011.89 1011.60 1011.68 1011.90 1012.20 1012.08 1012.22 1012.44 1012.70 1012.81 1013.26 1013.66 1014.02 1014.46 1015.19 1015.77 1016.08 1016.23 1016.57 1016.65 1016.63 1016.67 1016.43 1016.28 1016.19 1015.77 1015.54 1015.52 1015.52 1015.24 1014.90 1014.58 1014.33
1014.07 1014.25 1014.72 1014.31 1013.37 1015.38 1015.34 1016.23 1014.83 1014.98 1014.65 1013.35 1012.44 1012.00 1011.82 1012.23 1012.21 1012.56 1012.71 1013.00 1013.19 1013.92 1013.89 1013.95 1014.94 1016.03 1016.94 1017.00 1017.03 1016.95 1017.17 1017.03 1017.35 1017.11 1016.93 1016.69 1016.53 1016.44 1016.10 1015.60 1015.29 1015.17 1014.88 1014.77
1013.78 1014.69 1015.39 1015.27 1016.33 1016.25 1018.26 1017.75 1016.83 1015.21 1015.02 1013.87 1012.63 1012.13 1012.09 1012.47 1013.01 1013.30 1013.49 1013.95 1014.46 1015.34 1015.31 1015.32 1016.12 1016.88 1017.61 1017.73 1017.70 1017.69 1017.62 1017.59 1017.69 1017.42 1017.42 1017.44 1017.36 1016.98 1016.58 1016.03 1015.72 1015.61 1015.02 1015.13
1014.53 1014.76 1015.11 1015.55 1017.11 1017.00 1018.34 1018.30 1016.57 1016.55 1014.11 1012.67 1012.21 1012.27 1012.50 1013.06 1013.74 1014.05 1014.65 1015.08 1015.48 1015.92 1016.15 1016.42 1017.04 1017.63 1018.02 1018.20 1018.24 1018.18 1018.17 1018.09 1018.23 1018.24 1018.20 1017.96 1017.57 1017.21 1016.84 1016.61 1016.19 1015.46 1015.14 1014.66
Thickness
5837 5810 5800 5806 5820 5818 5809 5798 5782 5794 5812 5819 5801 5789 5794 5794 5787 5782 5776 5775 5774 5772 5764 5760 5751 5742 5735 5730 5723 5715 5709 5702 5696 5691 5685 5680 5674 5674 5669 5665 5660 5655 5649 5644
5820 5808 5840 5853 5833 5816 5823 5811 5804 5814 5830 5813 5787 5787 5793 5796 5794 5790 5786 5781 5782 5767 5762 5759 5753 5745 5739 5731 5725 5716 5708 5701 5696 5690 5683 5678 5674 5670 5667 5662 5657 5653 5648 5641
5808 5832 5863 5855 5835 5827 5823 5811 5806 5792 5797 5794 5791 5783 5786 5790 5798 5799 5798 5793 5781 5775 5765 5762 5755 5749 5741 5733 5725 5717 5708 5702 5694 5689 5684 5679 5675 5669 5662 5655 5652 5647 5645 5641
5820 5849 5850 5832 5827 5828 5801 5832 5821 5807 5778 5747 5768 5730 5766 5781 5782 5794 5798 5794 5785 5780 5777 5771 5763 5753 5743 5735 5728 5719 5710 5701 5695 5688 5680 5674 5666 5658 5655 5652 5650 5648 5640 5634
5814 5825 5834 5828 5833 5842 5816 5830 5810 5809 5766 5754 5745 5723 5716 5747 5768 5780 5793 5794 5794 5789 5782 5774 5769 5762 5750 5740 5727 5719 5709 5700 5693 5686 5680 5671 5665 5659 5655 5650 5646 5642 5636 5630
5823 5855 5852 5846 5852 5846 5844 5821 5806 5794 5762 5720 5761 5733 5726 5743 5766 5785 5797 5799 5794 5789 5783 5778 5773 5765 5747 5740 5728 5718 5710 5700 5693 5686 5677 5670 5664 5657 5651 5646 5639 5635 5630 5625
5819 5829 5852 5855 5829 5840 5829 5792 5741 5735 5729 5728 5768 5732 5737 5779 5801 5808 5799 5799 5790 5788 5781 5777 5767 5758 5744 5737 5728 5719 5710 5700 5693 5685 5676 5669 5663 5657 5649 5642 5637 5633 5626 5620
5777 5775 5821 5844 5828 5808 5817 5794 5741 5723 5729 5743 5775 5727 5761 5800 5799 5797 5802 5796 5790 5784 5782 5778 5771 5757 5746 5735 5728 5721 5709 5700 5694 5685 5675 5669 5662 5654 5647 5643 5636 5631 5625 5620
5779 5788 5832 5839 5835 5826 5808 5765 5789 5762 5771 5746 5757 5756 5783 5774 5765 5749 5789 5793 5784 5777 5777 5773 5768 5753 5744 5735 5727 5720 5708 5698 5690 5684 5674 5666 5659 5651 5646 5640 5635 5629 5625 5621
5810 5784 5824 5833 5841 5828 5806 5796 5753 5743 5720 5720 5741 5740 5741 5767 5770 5771 5787 5790 5792 5786 5780 5773 5770 5754 5747 5738 5729 5717 5707 5698 5691 5681 5674 5666 5659 5653 5646 5640 5633 5627 5623 5619
5824 5801 5803 5820 5806 5789 5783 5759 5750 5740 5743 5714 5707 5730 5775 5771 5784 5779 5772 5784 5765 5751 5778 5776 5770 5756 5749 5739 5729 5715 5705 5698 5690 5683 5675 5666 5657 5651 5644 5638 5633 5627 5622 5617
5824 5802 5779 5792 5822 5823 5804 5775 5761 5730 5739 5738 5727 5726 5779 5778 5775 5777 5779 5762 5755 5757 5759 5780 5775 5759 5746 5734 5723 5714 5707 5701 5694 5686 5677 5666 5657 5650 5643 5637 5630 5624 5620 5617
5822 5785 5756 5771 5792 5810 5797 5804 5792 5766 5746 5731 5723 5729 5778 5771 5767 5772 5757 5758 5759 5750 5715 5711 5758 5752 5745 5734 5726 5714 5705 5698 5691 5682 5673 5664 5655 5647 5640 5634 5630 5625 5619 5615
5823 5795 5775 5743 5769 5792 5786 5796 5792 5764 5729 5734 5736 5751 5761 5759 5762 5753 5747 5748 5756 5740 5724 5713 5720 5724 5741 5734 5722 5709 5703 5698 5692 5681 5671 5662 5653 5645 5638 5634 5629 5623 5617 5613
5807 5779 5792 5791 5801 5805 5804 5796 5799 5771 5778 5745 5764 5762 5764 5754 5754 5748 5740 5739 5736 5728 5730 5729 5727 5723 5732 5725 5715 5708 5698 5690 5685 5678 5669 5660 5652 5644 5638 5632 5628 5622 5618 5612
5808 5773 5788 5776 5797 5801 5797 5805 5802 5803 5788 5784 5785 5767 5772 5758 5754 5743 5741 5737 5735 5725 5715 5721 5746 5738 5727 5720 5709 5701 5691 5687 5685 5675 5666 5659 5651 5644 5638 5633 5628 5623 5616 5610
5789 5778 5768 5753 5783 5784 5763 5778 5796 5794 5797 5788 5763 5767 5766 5754 5750 5742 5744 5742 5737 5739 5745 5745 5741 5731 5721 5711 5702 5693 5691 5687 5678 5671 5664 5658 5652 5644 5636 5632 5627 5622 5616 5612
5788 5778 5771 5748 5762 5728 5779 5805 5796 5782 5780 5784 5784 5777 5772 5764 5759 5755 5754 5745 5744 5741 5737 5733 5727 5720 5714 5707 5699 5694 5690 5683 5675 5666 5660 5655 5649 5644 5640 5632 5626 5621 5616 5611
5799 5777 5754 5737 5735 5763 5766 5761 5761 5764 5763 5766 5759 5776 5770 5768 5760 5755 5757 5757 5750 5743 5738 5731 5727 5720 5713 5705 5699 5692 5683 5676 5668 5661 5656 5652 5647 5642 5637 5628 5621 5618 5614 5611
5791 5778 5754 5747 5723 5715 5746 5765 5770 5770 5732 5764 5770 5766 5769 5768 5726 5736 5756 5751 5743 5740 5734 5726 5720 5714 5705 5696 5692 5683 5674 5666 5660 5658 5654 5650 5644 5639 5632 5625 5620 5617 5613 5609
5749 5746 5742 5727 5719 5733 5757 5764 5769 5719 5722 5758 5766 5770 5765 5749 5749 5752 5753 5748 5744 5736 5729 5724 5713 5702 5696 5691 5683 5672 5665 5658 5656 5656 5651 5644 5640 5634 5630 5624 5617 5614 5611 5608
5737 5732 5724 5711 5710 5711 5767 5754 5736 5737 5751 5750 5751 5772 5758 5758 5754 5751 5745 5739 5737 5731 5725 5719 5705 5696 5692 5686 5675 5662 5654 5649 5652 5648 5644 5637 5630 5627 5625 5617 5616 5612 5607 5602
5725 5738 5723 5732 5724 5754 5755 5723 5736 5741 5736 5742 5737 5754 5752 5749 5746 5746 5739 5735 5732 5725 5718 5711 5701 5691 5683 5675 5670 5657 5652 5649 5643 5638 5634 5628 5626 5623 5617 5612 5609 5606 5603 5596
5740 5742 5730 5731 5766 5733 5729 5721 5737 5730 5720 5721 5749 5752 5750 5742 5744 5739 5737 5730 5724 5713 5707 5704 5690 5674 5664 5660 5655 5650 5643 5641 5632 5629 5624 5621 5618 5613 5610 5608 5604 5597 5590 5585
5734 5725 5717 5726 5713 5717 5694 5700 5711 5722 5724 5734 5749 5745 5742 5738 5732 5729 5724 5717 5708 5695 5690 5686 5674 5664 5654 5650 5644 5640 5636 5632 5625 5620 5617 5611 5606 5604 5603 5601 5594 5589 5584 5574
5725 5723 5712 5710 5699 5701 5685 5688 5697 5701 5728 5737 5740 5734 5735 5730 5721 5718 5710 5704 5694 5685 5680 5673 5664 5655 5647 5642 5637 5633 5629 5625 5618 5612 5607 5604 5602 5600 5596 5590 5587 5584 5578 5573